Tracking 30923 objects as of 1-Jul-2025
HD Live streaming from Space Station
objects crossing your sky now

FLOCK 4Y 24

Track FLOCK 4Y 24 now!
10-day predictions
FLOCK 4Y 24 is classified as:


NORAD ID: 55020
Int'l Code: 2023-001M
Perigee: 392.1 km
Apogee: 398.2 km
Inclination: 97.4 °
Period: 92.3 minutes
Semi major axis: 6766 km
RCS: Unknown
Launch date: January 3, 2023
Source: United States (US)
Launch site: AIR FORCE EASTERN TEST RANGE (AFETR)
Your satellite tracking list
Your tracking list is empty




NASA's NSSDC Master Catalog

Two Line Element Set (TLE):
1 55020U 23001M   25181.73628605  .00029029  00000-0  36167-3 0  9990
2 55020  97.3704 255.3295 0004513 222.0386 138.0525 15.59871327139141
Source of the keplerian elements: AFSPC